Regional Weather Roundup
Issued by NWS Sterling, VA

Home | Current Version | Previous Version | Graphics & Text | Print | Product List | Glossary On
Versions: 1 2 3 4 5 6 7 8 9 10 11 12 13 14 15 16 17 18 19 20 21 22 23 24 25 26 27 28 29 30 31 32 33 34 35 36 37 38 39 40 41 42 43 44 45 46 47 48 49 50
000
ASUS41 KLWX 191210
RWRLWX

REGIONAL WEATHER ROUNDUP
NATIONAL WEATHER SERVICE BALTIMORE MD/WASHINGTON DC
800 AM EDT SUN OCT 19 2014

Note: "FAIR" indicates few or no clouds below 12,000 feet
with no significant weather and/or obstructions to visibility.
 TC=TEMPERATURE CELSIUS

 * =Non NWS site. Station does not report precipitation (e.g. rain,
    snow, etc.), thunder, or fog.

DCZ001-MDZ009-015-VAZ040>042-051-053>054-191300-
WASHINGTON METRO

CITY           SKY/WX    TMP DP  RH WIND       PRES   REMARKS
WASHINGTON NAT PTCLDY    52  35  52 NW13      30.01R
DULLES         MOCLDY    48  35  60 NW15G21   30.01R
ANDREWS AFB    MOCLDY    50  35  56 NW17G25   29.99R
FT BELVOIR     MOCLDY    51  37  58 NW8       30.02R
QUANTICO       CLOUDY    52  37  56 N16G26    30.03R
COLLEGE PARK*  CLOUDY    52  36  54 NW8       30.00R
LEESBURG*      CLOUDY    50  37  62 NW17G29   30.03R
MANASSAS*      CLOUDY    48  36  61 NW16G23   30.03R
GAITHERSBURG*  CLOUDY    46  36  66 NW12G17   30.04R

$$

MDZ006>007-011-014-191300-
BALTIMORE METRO

CITY           SKY/WX    TMP DP  RH WIND       PRES   REMARKS
BWI AIRPORT    MOCLDY    50  38  63 NW16G24   29.98R
MD SCIENCE CTR   N/A     51  36  56 MISG      29.98R
MARTIN STATE   MOCLDY    50  39  66 NW6       29.98R
ANNAPOLIS      MOCLDY    52  41  66 NW9       29.98R
FORT MEADE*    MOCLDY    48  36  61 NW13G20   30.02R

$$

MDZ012-015-019>023-191300-
MARYLAND EASTERN SHORE

CITY           SKY/WX    TMP DP  RH WIND       PRES   REMARKS
OCEAN CITY     CLOUDY    52  42  69 NW10      29.91R
SALISBURY      CLOUDY    55  41  59 NW14G22   29.93R
BAY BRIDGE AP*   N/A     52  37  58 NW18G25   29.98R
CAMBRIDGE*     CLOUDY    54  36  50 N17G25    29.96R
EASTON*        PTCLDY    52  41  66 N8        30.00R

$$

MDZ017>025-191300-
SOUTHERN MARYLAND

CITY           SKY/WX    TMP DP  RH WIND       PRES   REMARKS
PATUXENT RIVER MOCLDY    53  39  59 NW20      29.97R
ST INIGOES     CLOUDY    53  38  56 VRB7G18   29.98R
LEONARDTOWN*   CLOUDY    50  37  62 NW7       30.00R

$$

MDZ003>005-191300-
NORTH CENTRAL MARYLAND

CITY           SKY/WX    TMP DP  RH WIND       PRES   REMARKS
FREDERICK*     PTCLDY    52  36  54 N9        30.05R
HAGERSTOWN APT PTCLDY    44  28  53 NW23G30   30.03R
WESTMINSTER*   CLOUDY    46  37  71 NW13G20   30.00R

$$

MDZ501>502-191300-
WESTERN MARYLAND

CITY           SKY/WX    TMP DP  RH WIND       PRES   REMARKS
OAKLAND*       CLOUDY    32 N/A N/A NW9       30.05R WCI  24
CUMBERLAND*    MOCLDY    45  32  61 NW6       30.13R

$$

VAZ025>031-191300-
SHENANDOAH VALLEY

CITY           SKY/WX    TMP DP  RH WIND       PRES   REMARKS
WINCHESTER*    CLOUDY    46  27  46 NW7       30.05R
FRONT ROYAL*   CLOUDY    45  32  61 NW7       30.04R
LURAY*         PTSUNNY   46  32  57 CALM      30.05R
NEW MARKET*    FAIR      45  32  60 N3        30.05R
STAUNTON*      MOCLDY    46  34  62 N10G17    30.05R
WAYNESBORO*    PTSUNNY   44  35  70 NW3       30.02R

$$

WVZ021-048>050-054>055-191300-
EASTERN WEST VIRGINIA PANHANDLE

CITY           SKY/WX    TMP DP  RH WIND       PRES   REMARKS
MARTINSBURG    CLOUDY    46  31  55 NW14G21   30.06R
PETERSBURG*    PTCLDY   N/A N/A N/A NW6       30.11R

$$

VAZ036>039-050-191300-
CENTRAL FOOTHILLS

CITY           SKY/WX    TMP DP  RH WIND       PRES   REMARKS
CHARLOTTESVILL PTCLDY    49  36  61 CALM      30.02R
CULPEPER*      CLEAR     50  34  53 NW6       30.04R
ORANGE*        MOCLDY    48  39  71 SW3       30.04R
GORDONSVILLE*  FAIR      50  34  54 NW9       30.02R
WARRENTON*     FAIR      50  40  68 NW16      30.03R

$$

VAZ055>057-191300-
NORTH AND CENTRAL PIEDMONT

CITY           SKY/WX    TMP DP  RH WIND       PRES   REMARKS
FREDERICKSBRG* CLEAR     52  39  61 NW10G16   30.01R
STAFFORD*      PTCLDY    48  36  61 NW14G21   30.06R

$$

NCZ024-NYZ072-PAZ021-071-VAZ022-071-191300-
OTHER REGIONAL OBSERVATIONS

CITY           SKY/WX    TMP DP  RH WIND       PRES   REMARKS
NEW YORK CITY  CLOUDY    52  36  54 MISG      29.87R
PHILADELPHIA   MOCLDY    51  36  56 NW13      29.92R
PITTSBURGH     MOCLDY    41  35  79 NW8       30.12R
ROANOKE        MOCLDY    48  37  65 W8        30.09R
RICHMOND       PTCLDY    53  39  59 NW7       30.01R
RALEIGH        CLEAR     48  42  80 CALM      30.06R

$$

ANZ530>537-191300-
MARINE OBSERVATIONS

STATION/POSITION TIME  TEMP    WIND        PRES
                       AIR SEA DIR/SP/G
                 (UTC) (F)     (DEG/KT/KT) (MB)
THOMAS PT LIGHT  1200   51 64  320/ 14/ 17 1016.3R

$$




USA.gov is the U.S. government's official web portal to all federal, state and local government web resources and services.